[[{"header":{"parameterUnit":"m.s-1","parameterCategory":1,"la1":30.2991,"la2":30.254,"lo1":-89.0895,"lo2":-89.0444,"dy":0.0017,"dx":0.0017,"nx":28,"ny":28,"refTime":"2024-03-14T09:00:00:Z","depth":0,"parameterNumber":2,"parameterNumberName":"U-component_of_WINDS"},"data":[0,0,0,0,0,0,0,0,0,0,0,0,0,0,0,0,0,0,0,0,0,0,0,0,0,0,0,0,0,0,0,0,0,0,0,0,0,0,0,0,0,0,0,0,0,0,0,0,0,0,0,0,0,0,0,0,0,0,-2.9378,-2.9378,0,-2.9347,-2.9347,-2.9346,-2.9288,-2.9287,-2.9286,-2.9285,-2.9255,-2.9255,-2.9255,0,0,0,0,0,0,0,0,0,0,0,0,0,-2.9388,-2.9388,-2.9378,-2.9378,-2.9377,-2.9347,-2.9347,-2.9346,-2.9289,-2.9287,-2.9286,-2.9285,-2.9255,-2.9255,-2.9255,0,0,0,0,0,0,0,0,0,0,0,0,0,-2.9373,-2.9388,-2.9378,-2.9345,-2.9342,-2.9347,-2.9347,-2.9346,-2.9289,-2.9287,-2.9286,-2.9284,-2.9254,-2.9255,-2.9255,-2.9291,0,0,-2.9256,-2.9256,0,0,0,0,0,0,0,0,-2.9374,-2.9373,-2.935,-2.9347,-2.9343,-2.932,-2.9339,-2.9328,-2.9289,-2.9309,-2.9285,-2.9283,-2.9278,-2.9276,-2.9274,-2.929,-2.9288,-2.9256,-2.9256,-2.9257,-2.9257,0,0,0,0,0,0,0,-2.9375,-2.9374,-2.9366,-2.935,-2.9346,-2.9332,-2.9328,-2.9336,-2.9303,-2.9307,-2.9303,-2.93,-2.9276,-2.9274,-2.9273,-2.9288,-2.9256,-2.9257,-2.9257,-2.9257,-2.933,-2.9331,0,0,0,0,0,0,-2.9381,-2.9375,-2.9367,-2.9365,-2.9355,-2.9333,-2.9328,-2.9329,-2.9303,-2.9297,-2.9301,-2.9297,-2.9274,-2.9273,-2.9272,-2.931,-2.9257,-2.9257,-2.9257,-2.9328,-2.933,-2.9332,0,0,0,0,0,0,-2.9381,-2.9381,-2.9368,-2.9369,-2.9366,-2.9334,-2.9336,-2.9329,-2.9327,-2.9299,-2.9292,-2.9306,-2.9273,-2.9271,-2.9286,-2.9308,-2.9257,-2.9257,-2.9326,-2.9329,-2.9331,-2.9389,0,0,0,0,0,0,-2.9382,-2.9381,-2.9394,-2.9369,-2.9366,-2.9383,-2.9337,-2.933,-2.9328,-2.9322,-2.9301,-2.9296,-2.9271,-2.9286,-2.9287,-2.9308,-2.9258,-2.9324,-2.9327,-2.933,-2.9385,-2.9393,-2.94,0,0,0,0,0,-2.9382,-2.9412,-2.9395,-2.9394,-2.9382,-2.9384,-2.9382,-2.9353,-2.933,-2.9343,-2.9324,-2.9296,-2.9306,-2.9288,-2.9288,-2.931,-2.9322,-2.9326,-2.933,-2.9381,-2.9391,-2.94,0,0,0,0,0,0,-2.9441,-2.9408,-2.9389,-2.9412,-2.9401,-2.9375,-2.939,-2.9365,-2.9361,-2.9356,-2.9321,-2.9316,-2.9336,-2.9325,-2.9305,-2.9343,-2.931,-2.9314,-2.9349,-2.9358,-2.9366,-2.9367,-2.9258,0,0,0,0,0,-2.9457,-2.9461,-2.9433,-2.9455,-2.9451,-2.9422,-2.9422,-2.94,-2.9388,-2.9383,-2.9366,-2.9355,-2.9355,-2.9357,-2.9356,-2.9384,-2.9377,-2.9399,-2.9406,-2.9413,-2.9416,-2.9428,-2.9437,-2.9345,-2.9345,-2.9345,0,0,-2.9489,-2.9471,-2.9476,-2.9467,-2.9456,-2.9461,-2.9418,-2.9426,-2.9429,-2.9384,-2.9397,-2.9384,-2.937,-2.9391,-2.9399,-2.9382,-2.9441,-2.9418,-2.9423,-2.9423,-2.9433,-2.9442,-2.945,-2.9347,-2.9347,-2.9346,0,0,-2.9549,-2.9537,-2.9554,-2.9544,-2.9528,-2.9509,-2.9513,-2.949,-2.9479,-2.9491,-2.9457,-2.9461,-2.9464,-2.9454,-2.945,-2.9507,-2.9481,-2.9508,-2.9548,-2.956,-2.9567,-2.9574,-2.9592,-2.96,-2.9512,-2.9512,-2.9512,0,-2.9591,-2.9597,-2.9566,-2.9575,-2.9572,-2.9531,-2.9548,-2.954,-2.9525,-2.9523,-2.9505,-2.9505,-2.9493,-2.9511,-2.9525,-2.9523,-2.9526,-2.9509,-2.9569,-2.9575,-2.958,-2.9597,-2.9605,-2.9515,-2.9515,-2.9515,-2.9514,0,-2.9648,-2.9654,-2.9669,-2.9655,-2.9653,-2.9666,-2.9637,-2.9639,-2.9618,-2.9601,-2.9613,-2.9597,-2.9591,-2.9595,-2.9575,-2.9609,-2.9599,-2.9575,-2.9541,-2.9593,-2.9608,-2.9615,-2.952,-2.9519,-2.9518,-2.9517,0,0,-2.9744,-2.9712,-2.9718,-2.971,-2.969,-2.9693,-2.9705,-2.9699,-2.97,-2.9692,-2.97,-2.9703,-2.968,-2.9675,-2.9654,-2.9665,-2.971,-2.964,-2.9639,-2.9652,-2.9745,-2.9761,-2.9769,-2.9693,-2.9694,-2.9695,-2.9745,0,-2.9798,-2.9815,-2.9787,-2.981,-2.9814,-2.9776,-2.9785,-2.9774,-2.9758,-2.9759,-2.9742,-2.9743,-2.9715,-2.9711,-2.9721,-2.9702,-2.9727,-2.9699,-2.9699,-2.9699,-2.9701,-2.9778,-2.9795,-2.9843,-2.9751,-2.9752,-2.9753,0,-2.9864,-2.9857,-2.988,-2.9858,-2.9858,-2.9867,-2.9859,-2.9861,-2.9847,-2.9835,-2.9829,-2.9804,-2.9813,-2.9782,-2.9794,-2.9774,-2.9773,-2.9764,-2.9765,-2.9763,-2.9728,-2.9775,-2.9858,-2.9865,-2.9763,-2.9762,-2.9761,0,-2.9928,-2.9926,-2.9938,-2.9934,-2.9908,-2.9915,-2.9905,-2.989,-2.9888,-2.9881,-2.9879,-2.9874,-2.9871,-2.9868,-2.9841,-2.9821,-2.9856,-2.9823,-2.9845,-2.9845,-2.9852,-2.9851,-2.9934,-2.9855,-2.9855,-2.9855,-2.9855,0,-2.999,-3.0005,-2.9967,-2.9975,-2.999,-2.9959,-2.9976,-2.9962,-2.9949,-2.9953,-2.9921,-2.9926,-2.9892,-2.9893,-2.9873,-2.9885,-2.9884,-2.9874,-2.9868,-2.9875,-2.9876,-2.9872,-2.9867,-2.9857,-2.9856,-2.9856,-2.9856,0,-3.0064,-3.0039,-3.005,-3.0025,-3.0019,-3.0032,-3.001,-3.0017,-2.9999,-3.0005,-3.0004,-2.9976,-2.9976,-2.995,-2.9945,-2.9931,-2.9951,-2.994,-2.9955,-2.995,-2.9973,-2.997,-3.0054,-3.0062,-2.9981,-2.9982,-2.9982,0,-3.0104,-3.0115,-3.0091,-3.0091,-3.0082,-3.0084,-3.0081,-3.0051,-3.005,-3.0035,-3.0043,-3.004,-3.0035,-3.0036,-3.0016,-3.0011,-2.9998,-3.0028,-2.9997,-3.0004,-2.9996,-2.9995,-2.9995,-3.0034,-3.0035,-3.0036,-3.0036,0,-3.0178,-3.0165,-3.0162,-3.0155,-3.0153,-3.0147,-3.0138,-3.014,-3.0107,-3.0108,-3.0106,-3.0103,-3.0097,-3.0094,-3.0085,-3.0075,-3.005,-3.0047,-3.0051,-3.0057,-3.0065,-3.0059,-2.997,-3.0044,-3.0043,-3.0043,-3.0042,-3.0042,-3.0234,-3.0241,-3.0225,-3.0223,-3.0214,-3.0206,-3.021,-3.0193,-3.0191,-3.0183,-3.0166,-3.0168,-3.0153,-3.0139,-3.0131,-3.0131,-3.0116,-3.0123,-3.0125,-3.0126,-3.013,-3.0067,-3.013,-3.013,-3.013,-3.0129,-3.0129,0,-3.0304,-3.0292,-3.0291,-3.0279,-3.0277,-3.0255,-3.0244,-3.0244,-3.0245,-3.0234,-3.023,-3.0229,-3.0225,-3.0205,-3.0199,-3.0203,-3.0191,-3.0202,-3.0201,-3.0198,-3.0144,-3.014,-3.0212,-3.0212,-3.0212,-3.0212,-3.0212,-3.0212,-3.034,-3.035,-3.0336,-3.0341,-3.0328,-3.0329,-3.0324,-3.0317,-3.0308,-3.0307,-3.0304,-3.0291,-3.0275,-3.0268,-3.0264,-3.0258,-3.0256,-3.0271,-3.0261,-3.021,-3.0202,-3.0195,-3.019,-3.0271,-3.0271,-3.0314,-3.0314,-3.0315]},{"header":{"parameterUnit":"m.s-1","parameterCategory":1,"la1":30.2991,"la2":30.254,"lo1":-89.0895,"lo2":-89.0444,"dy":0.0017,"dx":0.0017,"nx":28,"ny":28,"refTime":"2024-03-14T09:00:00:Z","depth":0,"parameterNumber":3,"parameterNumberName":"V-component_of_WINDS"},"data":[0,0,0,0,0,0,0,0,0,0,0,0,0,0,0,0,0,0,0,0,0,0,0,0,0,0,0,0,0,0,0,0,0,0,0,0,0,0,0,0,0,0,0,0,0,0,0,0,0,0,0,0,0,0,0,0,0,0,2.2539,2.2539,0,2.2561,2.2561,2.2561,2.2553,2.2552,2.2552,2.2551,2.2572,2.2573,2.2574,0,0,0,0,0,0,0,0,0,0,0,0,0,2.249,2.2491,2.2539,2.2539,2.254,2.2561,2.2561,2.2561,2.2553,2.2552,2.2551,2.2551,2.2572,2.2573,2.2575,0,0,0,0,0,0,0,0,0,0,0,0,0,2.2512,2.2492,2.2539,2.2538,2.2538,2.2561,2.2561,2.2561,2.2553,2.2552,2.2551,2.2551,2.2572,2.2573,2.2575,2.26,0,0,2.2579,2.258,0,0,0,0,0,0,0,0,2.2511,2.2514,2.2538,2.2538,2.2538,2.2553,2.2552,2.2574,2.2553,2.2547,2.2551,2.255,2.2567,2.2568,2.2574,2.2601,2.2601,2.258,2.2581,2.2581,2.2582,0,0,0,0,0,0,0,2.2509,2.2513,2.2548,2.2538,2.2538,2.2536,2.2539,2.2556,2.2561,2.2548,2.2547,2.255,2.2566,2.2573,2.2575,2.2602,2.258,2.2581,2.2582,2.2582,2.2652,2.2653,0,0,0,0,0,0,2.2508,2.2511,2.2547,2.2548,2.2522,2.2538,2.254,2.2549,2.2561,2.2562,2.255,2.2549,2.257,2.2573,2.2575,2.2607,2.2581,2.2583,2.2584,2.2651,2.2652,2.2653,0,0,0,0,0,0,2.2507,2.2511,2.2546,2.253,2.2534,2.2539,2.2549,2.255,2.2556,2.2563,2.2563,2.2556,2.257,2.2573,2.2594,2.2608,2.2583,2.2585,2.265,2.2651,2.2653,2.267,0,0,0,0,0,0,2.2505,2.251,2.252,2.253,2.2535,2.2564,2.255,2.2551,2.2559,2.2558,2.2568,2.2569,2.257,2.2592,2.2596,2.2609,2.2586,2.2649,2.2651,2.2652,2.2668,2.2671,2.2674,0,0,0,0,0,2.2504,2.2523,2.252,2.2525,2.2547,2.2565,2.2568,2.2569,2.256,2.257,2.2574,2.2569,2.2605,2.2594,2.2598,2.2613,2.2648,2.265,2.2652,2.2666,2.2671,2.2674,0,0,0,0,0,0,2.2513,2.2524,2.2521,2.2545,2.2554,2.2564,2.2576,2.2573,2.2584,2.2583,2.2583,2.2585,2.2607,2.2612,2.2599,2.2638,2.2625,2.2628,2.2635,2.2639,2.2642,2.2641,2.2587,0,0,0,0,0,2.2518,2.2533,2.2541,2.2561,2.2566,2.257,2.2578,2.2578,2.2588,2.2591,2.2597,2.2607,2.2621,2.263,2.2643,2.2668,2.2671,2.268,2.2683,2.2686,2.2689,2.2705,2.2709,2.266,2.266,2.266,0,0,2.2529,2.2536,2.2545,2.2563,2.257,2.2586,2.2573,2.2589,2.2601,2.2594,2.2615,2.2619,2.263,2.2654,2.2665,2.2659,2.2703,2.2689,2.2691,2.2692,2.2707,2.2712,2.2716,2.2661,2.2661,2.2661,0,0,2.2556,2.2562,2.2581,2.2589,2.26,2.2603,2.2608,2.2618,2.2621,2.2642,2.2638,2.2651,2.2675,2.2683,2.269,2.2723,2.2719,2.2727,2.2744,2.2759,2.2763,2.2767,2.278,2.2785,2.2729,2.2729,2.2729,0,2.2567,2.259,2.259,2.2608,2.2616,2.2611,2.263,2.2638,2.2653,2.2659,2.2652,2.2683,2.2689,2.2716,2.2724,2.273,2.2736,2.2726,2.2763,2.2766,2.277,2.2782,2.2787,2.273,2.273,2.273,2.273,0,2.2604,2.262,2.2634,2.265,2.266,2.2678,2.2681,2.2691,2.2691,2.2695,2.2717,2.2725,2.274,2.2746,2.2745,2.2774,2.277,2.2763,2.275,2.2775,2.2788,2.2792,2.2732,2.2732,2.2731,2.2731,0,0,2.2638,2.2655,2.266,2.2668,2.2681,2.2694,2.2712,2.2728,2.2738,2.2748,2.2765,2.2785,2.2779,2.2788,2.2787,2.2801,2.2828,2.2792,2.2793,2.28,2.2863,2.2869,2.2875,2.2825,2.2826,2.2827,2.2862,0,2.2667,2.27,2.2702,2.2732,2.2747,2.2743,2.2759,2.277,2.2774,2.2788,2.2793,2.2808,2.2798,2.2804,2.2817,2.2822,2.2841,2.2819,2.2841,2.2842,2.2841,2.2881,2.2887,2.2921,2.2867,2.2868,2.2868,0,2.2706,2.272,2.2751,2.2764,2.2771,2.2786,2.2801,2.2815,2.2826,2.2829,2.2839,2.2837,2.2857,2.2843,2.287,2.2856,2.2865,2.2869,2.287,2.2873,2.2858,2.2887,2.2931,2.2937,2.2875,2.2875,2.2874,0,2.273,2.2756,2.2779,2.2786,2.2801,2.2811,2.2818,2.2829,2.2839,2.2853,2.286,2.2875,2.2884,2.2896,2.2899,2.2888,2.2927,2.2912,2.293,2.2931,2.294,2.294,2.2988,2.2943,2.2943,2.2943,2.2943,0,2.2763,2.2784,2.279,2.2804,2.2827,2.2829,2.2852,2.2858,2.2868,2.2884,2.288,2.2895,2.2897,2.2913,2.2915,2.2939,2.2942,2.2945,2.2946,2.2947,2.2947,2.2954,2.2952,2.2944,2.2944,2.2943,2.2943,0,2.2794,2.2799,2.2825,2.2837,2.2841,2.2858,2.2869,2.2883,2.2887,2.2907,2.2912,2.2919,2.2938,2.2941,2.2962,2.2964,2.2993,2.299,2.2989,2.299,2.3008,2.3007,2.3064,2.3073,2.302,2.3021,2.3021,0,2.2816,2.2832,2.2847,2.2858,2.2866,2.2883,2.2893,2.2896,2.2907,2.2923,2.2936,2.2954,2.2969,2.2998,2.3006,2.3022,2.3021,2.304,2.3024,2.3025,2.3024,2.3024,2.3026,2.3044,2.3044,2.3045,2.3045,0,2.2856,2.2858,2.2874,2.2891,2.2904,2.2918,2.2931,2.294,2.2944,2.2957,2.2976,2.2988,2.3011,2.303,2.3047,2.3054,2.3051,2.305,2.3055,2.3057,2.3057,2.3059,2.3,2.3049,2.3048,2.3048,2.3048,2.3048,2.2884,2.2899,2.2912,2.2931,2.2941,2.2953,2.2968,2.2975,2.2991,2.3011,2.3011,2.3033,2.3045,2.3068,2.3077,2.3094,2.3088,2.3095,2.3097,2.31,2.3103,2.3053,2.3097,2.3096,2.3096,2.3096,2.3096,0,2.2925,2.2934,2.295,2.297,2.2984,2.298,2.2995,2.3008,2.3027,2.3039,2.3055,2.3078,2.3096,2.3105,2.3124,2.3136,2.3135,2.3141,2.3141,2.3143,2.3106,2.31,2.3141,2.3141,2.3141,2.3141,2.3141,2.3141,2.2948,2.2973,2.2977,2.3008,2.3017,2.3039,2.3048,2.306,2.307,2.3096,2.3112,2.3118,2.3129,2.3149,2.3166,2.3168,2.3176,2.3183,2.3185,2.315,2.3145,2.3141,2.3136,2.3184,2.3184,2.3221,2.3221,2.3221]}]]